Terug naar catalogus

DELTA 1 DEB *

ActiefLEO
NORAD 15789·DEBRIS·🇺🇸 United States

Gelanceerd Nov 6, 1973 vanaf Vandenberg Space Force Base

Loading…

Volgende Passages (komende 24 uur)

TLE

VerouderendSource: Space-Track

Epoch: Sep 12, 2026, 04:28 UTC

1 15789U 73086GT  26255.18657618  .00006899  00000-0  34717-1 0  9991
2 15789 103.7229  16.0406 0383720 331.6261 146.4010 12.50478380657909

Volg DELTA 1 DEB * in realtime met AllMySat

Download on the App Store